| time (UTC) | temp C | wind direction | speed KPH | gust KPH | rain 1hr cm | rain 24hr cm | rain mn cm | humidity % | barometer mb |
| 20260906201047 | 34 | 201 | 24.1 | 38.6 | 0.00 | 0.00 | 0.00 | 39 | 1015.5 |
| 20260906200547 | 33 | 143 | 29.0 | 38.6 | 0.00 | 0.00 | 0.00 | 39 | 1015.6 |
| 20260906200056 | 33 | 119 | 22.5 | 35.4 | 0.00 | 0.00 | 0.00 | 40 | 1015.7 |
| 20260906195548 | 33 | 124 | 25.7 | 40.2 | 0.00 | 0.00 | 0.00 | 40 | 1015.8 |
| 20260906195047 | 33 | 134 | 25.7 | 40.2 | 0.00 | 0.00 | 0.00 | 40 | 1016.1 |
| 20260906194609 | 33 | 146 | 25.7 | 40.2 | 0.00 | 0.00 | 0.00 | 40 | 1016.0 |
| 20260906194047 | 33 | 134 | 22.5 | 45.1 | 0.00 | 0.00 | 0.00 | 41 | 1016.0 |
| 20260906193549 | 33 | 158 | 25.7 | 45.1 | 0.00 | 0.00 | 0.00 | 40 | 1016.2 |
| 20260906193106 | 33 | 138 | 25.7 | 35.4 | 0.00 | 0.00 | 0.00 | 41 | 1016.5 |
| 20260906192547 | 33 | 127 | 25.7 | 37.0 | 0.00 | 0.00 | 0.00 | 42 | 1016.5 |
| 20260906192050 | 32 | 137 | 27.4 | 37.0 | 0.00 | 0.00 | 0.00 | 42 | 1016.5 |
| 20260906191611 | 33 | 151 | 22.5 | 32.2 | 0.00 | 0.00 | 0.00 | 42 | 1016.6 |
| 20260906191048 | 32 | 143 | 24.1 | 32.2 | 0.00 | 0.00 | 0.00 | 42 | 1016.6 |
| 20260906190548 | 32 | 144 | 22.5 | 35.4 | 0.00 | 0.00 | 0.00 | 42 | 1016.7 |
| 20260906190106 | 32 | 155 | 20.9 | 35.4 | 0.00 | 0.00 | 0.00 | 42 | 1016.7 |
| 20260906185550 | 32 | 134 | 25.7 | 35.4 | 0.00 | 0.00 | 0.00 | 41 | 1016.8 |
| 20260906185049 | 33 | 123 | 20.9 | 32.2 | 0.00 | 0.00 | 0.00 | 41 | 1016.8 |
| 20260906184602 | 33 | 134 | 24.1 | 35.4 | 0.00 | 0.00 | 0.00 | 42 | 1016.8 |
| 20260906184047 | 32 | 126 | 24.1 | 35.4 | 0.00 | 0.00 | 0.00 | 42 | 1017.0 |
| 20260906183546 | 32 | 115 | 22.5 | 33.8 | 0.00 | 0.00 | 0.00 | 45 | 1017.1 |
| 20260906183104 | 31 | 139 | 20.9 | 33.8 | 0.00 | 0.00 | 0.00 | 44 | 1017.2 |
| 20260906182554 | 31 | 109 | 20.9 | 30.6 | 0.00 | 0.00 | 0.00 | 45 | 1017.3 |
| 20260906182049 | 31 | 115 | 17.7 | 32.2 | 0.00 | 0.00 | 0.00 | 47 | 1017.5 |
| 20260906181633 | 30 | 114 | 24.1 | 32.2 | 0.00 | 0.00 | 0.00 | 48 | 1017.6 |
| 20260906181048 | 30 | 121 | 22.5 | 30.6 | 0.00 | 0.00 | 0.00 | 48 | 1017.8 |
| 20260906180546 | 30 | 98 | 20.9 | 30.6 | 0.00 | 0.00 | 0.00 | 52 | 1018.0 |
| 20260906180108 | 30 | 101 | 22.5 | 35.4 | 0.00 | 0.00 | 0.00 | 52 | 1018.1 |
| 20260906175548 | 29 | 117 | 22.5 | 35.4 | 0.00 | 0.00 | 0.00 | 54 | 1018.0 |
| 20260906175048 | 29 | 134 | 22.5 | 30.6 | 0.00 | 0.00 | 0.00 | 55 | 1018.0 |
| 20260906174611 | 28 | 101 | 19.3 | 32.2 | 0.00 | 0.00 | 0.00 | 56 | 1018.1 |
| 20260906174048 | 28 | 101 | 20.9 | 32.2 | 0.00 | 0.00 | 0.00 | 56 | 1018.2 |
| 20260906173548 | 28 | 84 | 20.9 | 32.2 | 0.00 | 0.00 | 0.00 | 57 | 1018.4 |
| 20260906173106 | 28 | 91 | 20.9 | 32.2 | 0.00 | 0.00 | 0.00 | 58 | 1018.6 |
| 20260906172547 | 28 | 101 | 24.1 | 32.2 | 0.00 | 0.00 | 0.00 | 60 | 1018.7 |
| 20260906172045 | 28 | 142 | 19.3 | 37.0 | 0.00 | 0.00 | 0.00 | 61 | 1018.8 |
| 20260906171602 | 28 | 102 | 20.9 | 37.0 | 0.00 | 0.00 | 0.00 | 61 | 1018.9 |
| 20260906171046 | 27 | 115 | 22.5 | 30.6 | 0.00 | 0.00 | 0.00 | 65 | 1019.1 |
| 20260906170547 | 26 | 102 | 17.7 | 29.0 | 0.00 | 0.00 | 0.00 | 71 | 1019.1 |
| 20260906170103 | 26 | 77 | 9.7 | 20.9 | 0.00 | 0.00 | 0.00 | 73 | 1019.1 |
| 20260906165552 | 25 | 89 | 14.5 | 27.4 | 0.00 | 0.00 | 0.00 | 76 | 1018.9 |
| 20260906165048 | 25 | 98 | 12.9 | 27.4 | 0.00 | 0.00 | 0.00 | 77 | 1019.1 |
| 20260906164602 | 25 | 86 | 17.7 | 27.4 | 0.00 | 0.00 | 0.00 | 73 | 1019.2 |
| 20260906164048 | 25 | 68 | 9.7 | 24.1 | 0.00 | 0.00 | 0.00 | 71 | 1019.3 |
| 20260906163545 | 26 | 41 | 9.7 | 22.5 | 0.00 | 0.00 | 0.00 | 68 | 1019.3 |
| 20260906163112 | 26 | 77 | 9.7 | 20.9 | 0.00 | 0.00 | 0.00 | 66 | 1019.5 |
| 20260906162548 | 26 | 68 | 9.7 | 22.5 | 0.00 | 0.00 | 0.00 | 65 | 1019.7 |
| 20260906162047 | 26 | 85 | 9.7 | 22.5 | 0.00 | 0.00 | 0.00 | 67 | 1019.6 |
| 20260906161611 | 26 | 68 | 9.7 | 19.3 | 0.00 | 0.00 | 0.00 | 67 | 1019.7 |
| 20260906161047 | 26 | 102 | 6.4 | 20.9 | 0.00 | 0.00 | 0.00 | 67 | 1019.7 |
| 20260906160547 | 26 | 68 | 6.4 | 20.9 | 0.00 | 0.00 | 0.00 | 68 | 1019.5 |
| 20260906160105 | 26 | 109 | 8.0 | 20.9 | 0.00 | 0.00 | 0.00 | 67 | 1019.5 |
| 20260906155547 | 26 | 94 | 8.0 | 20.9 | 0.00 | 0.00 | 0.00 | 66 | 1019.4 |
| 20260906155047 | 26 | 37 | 6.4 | 20.9 | 0.00 | 0.00 | 0.00 | 65 | 1019.4 |
| 20260906154602 | 26 | 49 | 6.4 | 22.5 | 0.00 | 0.00 | 0.00 | 66 | 1019.3 |
| 20260906154047 | 26 | 13 | 9.7 | 24.1 | 0.00 | 0.00 | 0.00 | 65 | 1019.3 |
| 20260906153546 | 26 | 97 | 11.3 | 24.1 | 0.00 | 0.00 | 0.00 | 65 | 1019.1 |
| 20260906153056 | 26 | 91 | 8.0 | 22.5 | 0.00 | 0.00 | 0.00 | 64 | 1019.2 |
| 20260906152548 | 26 | 53 | 8.0 | 20.9 | 0.00 | 0.00 | 0.00 | 66 | 1019.3 |
| 20260906152048 | 26 | 66 | 9.7 | 20.9 | 0.00 | 0.00 | 0.00 | 65 | 1019.4 |
| 20260906151608 | 26 | 21 | 6.4 | 17.7 | 0.00 | 0.00 | 0.00 | 65 | 1019.2 |
| 20260906151047 | 26 | 106 | 6.4 | 17.7 | 0.00 | 0.00 | 0.00 | 65 | 1019.2 |
| 20260906150549 | 26 | 68 | 8.0 | 17.7 | 0.00 | 0.00 | 0.00 | 65 | 1019.1 |
| 20260906150059 | 26 | 94 | 4.8 | 22.5 | 0.00 | 0.00 | 0.00 | 64 | 1018.8 |
| 20260906145547 | 26 | 20 | 3.2 | 22.5 | 0.00 | 0.00 | 0.00 | 64 | 1018.8 |
| 20260906145047 | 26 | 54 | 8.0 | 22.5 | 0.00 | 0.00 | 0.00 | 64 | 1018.8 |
| 20260906144603 | 26 | 159 | 8.0 | 14.5 | 0.00 | 0.00 | 0.00 | 64 | 1018.8 |
| 20260906144051 | 26 | 50 | 3.2 | 19.3 | 0.00 | 0.00 | 0.00 | 64 | 1018.7 |
| 20260906143547 | 26 | 84 | 4.8 | 19.3 | 0.00 | 0.00 | 0.00 | 64 | 1018.7 |
| 20260906143104 | 26 | 65 | 4.8 | 19.3 | 0.00 | 0.00 | 0.00 | 62 | 1018.7 |
| 20260906142547 | 26 | 74 | 6.4 | 16.1 | 0.00 | 0.00 | 0.00 | 61 | 1018.5 |
| 20260906142046 | 26 | 39 | 4.8 | 16.1 | 0.00 | 0.00 | 0.00 | 61 | 1018.6 |
| 20260906141604 | 26 | 53 | 4.8 | 17.7 | 0.00 | 0.00 | 0.00 | 61 | 1018.6 |
| 20260906141047 | 26 | 0 | 8.0 | 17.7 | 0.00 | 0.00 | 0.00 | 60 | 1018.4 |
| 20260906140549 | 26 | 94 | 14.5 | 17.7 | 0.00 | 0.00 | 0.00 | 61 | 1018.0 |
| 20260906140108 | 26 | 91 | 11.3 | 16.1 | 0.00 | 0.00 | 0.00 | 63 | 1017.9 |
| 20260906135547 | 25 | 127 | 9.7 | 14.5 | 0.00 | 0.00 | 0.00 | 66 | 1017.8 |
| 20260906135051 | 25 | 115 | 9.7 | 14.5 | 0.00 | 0.00 | 0.00 | 68 | 1017.8 |
| 20260906134616 | 25 | 124 | 9.7 | 14.5 | 0.00 | 0.00 | 0.00 | 69 | 1017.8 |
| 20260906134050 | 24 | 124 | 8.0 | 12.9 | 0.00 | 0.00 | 0.00 | 70 | 1017.6 |
| 20260906133549 | 24 | 139 | 9.7 | 12.9 | 0.00 | 0.00 | 0.00 | 70 | 1017.7 |
| 20260906133115 | 24 | 139 | 8.0 | 12.9 | 0.00 | 0.00 | 0.00 | 71 | 1017.5 |
| 20260906132547 | 23 | 145 | 6.4 | 11.3 | 0.00 | 0.00 | 0.00 | 71 | 1017.4 |
| 20260906132048 | 23 | 134 | 8.0 | 12.9 | 0.00 | 0.00 | 0.00 | 71 | 1017.3 |
| 20260906131602 | 23 | 134 | 9.7 | 12.9 | 0.00 | 0.00 | 0.00 | 72 | 1017.4 |
| 20260906131046 | 23 | 136 | 9.7 | 12.9 | 0.00 | 0.00 | 0.00 | 73 | 1017.4 |
| 20260906130549 | 22 | 141 | 8.0 | 12.9 | 0.00 | 0.00 | 0.00 | 74 | 1017.2 |
| 20260906130110 | 22 | 143 | 9.7 | 12.9 | 0.00 | 0.00 | 0.00 | 75 | 1017.2 |
| 20260906125548 | 22 | 143 | 9.7 | 16.1 | 0.00 | 0.00 | 0.00 | 75 | 1017.0 |
| 20260906125046 | 22 | 141 | 11.3 | 16.1 | 0.00 | 0.00 | 0.00 | 75 | 1016.9 |
| 20260906124608 | 22 | 141 | 11.3 | 12.9 | 0.00 | 0.00 | 0.00 | 76 | 1017.0 |
| 20260906124052 | 22 | 134 | 9.7 | 12.9 | 0.00 | 0.00 | 0.00 | 76 | 1017.0 |
| 20260906123547 | 21 | 141 | 8.0 | 11.3 | 0.00 | 0.00 | 0.00 | 77 | 1016.8 |
| 20260906123104 | 21 | 144 | 8.0 | 9.7 | 0.00 | 0.00 | 0.00 | 78 | 1016.8 |
| 20260906122548 | 21 | 148 | 6.4 | 9.7 | 0.00 | 0.00 | 0.00 | 78 | 1016.7 |
| 20260906122048 | 21 | 149 | 6.4 | 9.7 | 0.00 | 0.00 | 0.00 | 78 | 1016.6 |
| 20260906121611 | 21 | 146 | 6.4 | 9.7 | 0.00 | 0.00 | 0.00 | 79 | 1016.6 |
| 20260906121047 | 21 | 148 | 6.4 | 8.0 | 0.00 | 0.00 | 0.00 | 79 | 1016.5 |
| 20260906120547 | 21 | 141 | 6.4 | 8.0 | 0.00 | 0.00 | 0.00 | 79 | 1016.5 |
| 20260906120056 | 20 | 134 | 6.4 | 9.7 | 0.00 | 0.00 | 0.00 | 80 | 1016.4 |
| 20260906115545 | 20 | 153 | 6.4 | 9.7 | 0.00 | 0.00 | 0.00 | 80 | 1016.3 |
| 20260906115048 | 20 | 154 | 8.0 | 9.7 | 0.00 | 0.00 | 0.00 | 80 | 1016.4 |
| 20260906114627 | 20 | 139 | 8.0 | 9.7 | 0.00 | 0.00 | 0.00 | 80 | 1016.2 |
| 20260906114048 | 20 | 143 | 8.0 | 8.0 | 0.00 | 0.00 | 0.00 | 80 | 1016.2 |
| 20260906113545 | 20 | 143 | 6.4 | 8.0 | 0.00 | 0.00 | 0.00 | 80 | 1016.1 |
| 20260906113114 | 20 | 146 | 6.4 | 8.0 | 0.00 | 0.00 | 0.00 | 80 | 1016.1 |
| 20260906112547 | 20 | 133 | 6.4 | 8.0 | 0.00 | 0.00 | 0.00 | 79 | 1016.1 |
| 20260906112047 | 20 | 152 | 6.4 | 8.0 | 0.00 | 0.00 | 0.00 | 80 | 1016.0 |
| 20260906111559 | 20 | 156 | 6.4 | 8.0 | 0.00 | 0.00 | 0.00 | 80 | 1016.1 |
| 20260906111047 | 20 | 157 | 6.4 | 8.0 | 0.00 | 0.00 | 0.00 | 79 | 1016.1 |
| 20260906110550 | 21 | 147 | 6.4 | 8.0 | 0.00 | 0.00 | 0.00 | 79 | 1016.1 |
| 20260906105549 | 21 | 143 | 4.8 | 6.4 | 0.00 | 0.00 | 0.00 | 78 | 1016.1 |
| 20260906105048 | 21 | 144 | 4.8 | 4.8 | 0.00 | 0.00 | 0.00 | 78 | 1016.0 |
| 20260906104602 | 21 | 131 | 3.2 | 4.8 | 0.00 | 0.00 | 0.00 | 77 | 1015.9 |
| 20260906104047 | 21 | 130 | 4.8 | 4.8 | 0.00 | 0.00 | 0.00 | 76 | 1015.8 |
| 20260906103546 | 21 | 129 | 3.2 | 4.8 | 0.00 | 0.00 | 0.00 | 75 | 1015.8 |
| 20260906103056 | 21 | 128 | 3.2 | 6.4 | 0.00 | 0.00 | 0.00 | 75 | 1016.0 |
| 20260906102546 | 21 | 129 | 3.2 | 8.0 | 0.00 | 0.00 | 0.00 | 75 | 1015.8 |
| 20260906102052 | 21 | 122 | 4.8 | 8.0 | 0.00 | 0.00 | 0.00 | 75 | 1016.0 |
| 20260906101604 | 21 | 123 | 6.4 | 8.0 | 0.00 | 0.00 | 0.00 | 75 | 1016.0 |
| 20260906101050 | 22 | 108 | 4.8 | 8.0 | 0.00 | 0.00 | 0.00 | 76 | 1015.9 |
| 20260906100546 | 22 | 113 | 4.8 | 4.8 | 0.00 | 0.00 | 0.00 | 75 | 1016.0 |
| 20260906100106 | 22 | 128 | 4.8 | 4.8 | 0.00 | 0.00 | 0.00 | 74 | 1016.0 |
| 20260906095547 | 22 | 120 | 3.2 | 4.8 | 0.00 | 0.00 | 0.00 | 73 | 1016.0 |
| 20260906095045 | 22 | 0 | 0.0 | 0.0 | 0.00 | 0.00 | 0.00 | 72 | 1016.0 |
| 20260906094601 | 22 | 0 | 0.0 | 3.2 | 0.00 | 0.00 | 0.00 | 72 | 1015.9 |
| 20260906094047 | 23 | 0 | 0.0 | 4.8 | 0.00 | 0.00 | 0.00 | 71 | 1016.0 |
| 20260906093547 | 23 | 119 | 3.2 | 6.4 | 0.00 | 0.00 | 0.00 | 70 | 1016.0 |
| 20260906093057 | 23 | 153 | 3.2 | 6.4 | 0.00 | 0.00 | 0.00 | 70 | 1015.9 |
| 20260906092547 | 23 | 148 | 4.8 | 6.4 | 0.00 | 0.00 | 0.00 | 70 | 1015.9 |
| 20260906092047 | 23 | 182 | 3.2 | 6.4 | 0.00 | 0.00 | 0.00 | 69 | 1015.8 |
| 20260906091611 | 23 | 150 | 3.2 | 6.4 | 0.00 | 0.00 | 0.00 | 69 | 1015.8 |
| 20260906091046 | 23 | 188 | 3.2 | 6.4 | 0.00 | 0.00 | 0.00 | 68 | 1016.0 |
| 20260906090548 | 24 | 148 | 4.8 | 6.4 | 0.00 | 0.00 | 0.00 | 68 | 1016.0 |
| 20260906090112 | 24 | 168 | 3.2 | 8.0 | 0.00 | 0.00 | 0.00 | 68 | 1016.0 |
| 20260906085551 | 24 | 179 | 4.8 | 8.0 | 0.00 | 0.00 | 0.00 | 67 | 1016.0 |
| 20260906085047 | 24 | 166 | 6.4 | 9.7 | 0.00 | 0.00 | 0.00 | 67 | 1016.0 |
| 20260906084601 | 25 | 151 | 6.4 | 9.7 | 0.00 | 0.00 | 0.00 | 66 | 1015.8 |
| 20260906084046 | 25 | 218 | 4.8 | 9.7 | 0.00 | 0.00 | 0.00 | 66 | 1015.8 |
| 20260906083547 | 25 | 199 | 4.8 | 9.7 | 0.00 | 0.00 | 0.00 | 65 | 1015.8 |
| 20260906083103 | 25 | 197 | 6.4 | 9.7 | 0.00 | 0.00 | 0.00 | 65 | 1015.9 |
| 20260906082546 | 25 | 205 | 6.4 | 9.7 | 0.00 | 0.00 | 0.00 | 65 | 1016.0 |
| 20260906082048 | 25 | 204 | 4.8 | 9.7 | 0.00 | 0.00 | 0.00 | 64 | 1016.0 |
| 20260906081602 | 25 | 205 | 4.8 | 8.0 | 0.00 | 0.00 | 0.00 | 64 | 1016.1 |
| 20260906081048 | 25 | 174 | 4.8 | 9.7 | 0.00 | 0.00 | 0.00 | 63 | 1016.1 |
| 20260906080549 | 25 | 176 | 4.8 | 11.3 | 0.00 | 0.00 | 0.00 | 63 | 1016.2 |
| 20260906080111 | 25 | 206 | 4.8 | 14.5 | 0.00 | 0.00 | 0.00 | 63 | 1016.2 |
| 20260906075547 | 25 | 214 | 8.0 | 14.5 | 0.00 | 0.00 | 0.00 | 62 | 1016.1 |
| 20260906075047 | 25 | 220 | 9.7 | 14.5 | 0.00 | 0.00 | 0.00 | 62 | 1016.2 |
| 20260906074603 | 25 | 205 | 8.0 | 12.9 | 0.00 | 0.00 | 0.00 | 62 | 1016.0 |
| 20260906074046 | 25 | 236 | 8.0 | 12.9 | 0.00 | 0.00 | 0.00 | 62 | 1016.0 |
| 20260906073547 | 25 | 220 | 8.0 | 12.9 | 0.00 | 0.00 | 0.00 | 61 | 1016.0 |
| 20260906073103 | 25 | 194 | 9.7 | 12.9 | 0.00 | 0.00 | 0.00 | 60 | 1016.0 |
| 20260906072549 | 25 | 202 | 8.0 | 12.9 | 0.00 | 0.00 | 0.00 | 60 | 1016.1 |
| 20260906072047 | 25 | 191 | 8.0 | 12.9 | 0.00 | 0.00 | 0.00 | 60 | 1016.0 |
| 20260906071606 | 25 | 166 | 9.7 | 14.5 | 0.00 | 0.00 | 0.00 | 60 | 1016.0 |
| 20260906071048 | 25 | 166 | 9.7 | 16.1 | 0.00 | 0.00 | 0.00 | 60 | 1015.9 |
| 20260906070550 | 26 | 148 | 11.3 | 16.1 | 0.00 | 0.00 | 0.00 | 60 | 1015.8 |
| 20260906065548 | 26 | 164 | 11.3 | 16.1 | 0.00 | 0.00 | 0.00 | 60 | 1015.8 |
| 20260906065047 | 26 | 157 | 11.3 | 16.1 | 0.00 | 0.00 | 0.00 | 59 | 1016.0 |
| 20260906064559 | 26 | 141 | 11.3 | 16.1 | 0.00 | 0.00 | 0.00 | 59 | 1016.0 |
| 20260906064049 | 26 | 148 | 11.3 | 17.7 | 0.00 | 0.00 | 0.00 | 58 | 1016.1 |
| 20260906063552 | 26 | 155 | 11.3 | 17.7 | 0.00 | 0.00 | 0.00 | 58 | 1016.1 |
| 20260906063102 | 26 | 156 | 11.3 | 17.7 | 0.00 | 0.00 | 0.00 | 58 | 1016.0 |
| 20260906062551 | 26 | 164 | 12.9 | 19.3 | 0.00 | 0.00 | 0.00 | 58 | 1016.1 |
| 20260906062049 | 26 | 142 | 14.5 | 19.3 | 0.00 | 0.00 | 0.00 | 58 | 1016.1 |
| 20260906061608 | 26 | 152 | 14.5 | 19.3 | 0.00 | 0.00 | 0.00 | 58 | 1016.0 |
| 20260906061047 | 26 | 139 | 12.9 | 17.7 | 0.00 | 0.00 | 0.00 | 58 | 1016.1 |
| 20260906060547 | 26 | 153 | 12.9 | 17.7 | 0.00 | 0.00 | 0.00 | 58 | 1016.1 |
| 20260906060150 | 26 | 175 | 11.3 | 16.1 | 0.00 | 0.00 | 0.00 | 58 | 1016.1 |
| 20260906055550 | 26 | 143 | 11.3 | 16.1 | 0.00 | 0.00 | 0.00 | 59 | 1016.0 |
| 20260906055049 | 26 | 146 | 12.9 | 19.3 | 0.00 | 0.00 | 0.00 | 60 | 1015.8 |
| 20260906054604 | 26 | 129 | 12.9 | 20.9 | 0.00 | 0.00 | 0.00 | 60 | 1015.9 |
| 20260906054049 | 26 | 130 | 14.5 | 20.9 | 0.00 | 0.00 | 0.00 | 61 | 1015.8 |
| 20260906053545 | 26 | 141 | 14.5 | 20.9 | 0.00 | 0.00 | 0.00 | 61 | 1015.7 |
| 20260906053100 | 26 | 129 | 14.5 | 20.9 | 0.00 | 0.00 | 0.00 | 62 | 1015.7 |
| 20260906052549 | 26 | 133 | 12.9 | 20.9 | 0.00 | 0.00 | 0.00 | 62 | 1015.6 |
| 20260906052047 | 26 | 123 | 12.9 | 20.9 | 0.00 | 0.00 | 0.00 | 62 | 1015.6 |
| 20260906051605 | 26 | 124 | 11.3 | 17.7 | 0.00 | 0.00 | 0.00 | 62 | 1015.6 |
| 20260906051049 | 26 | 132 | 12.9 | 19.3 | 0.00 | 0.00 | 0.00 | 62 | 1015.6 |
| 20260906050548 | 26 | 117 | 12.9 | 19.3 | 0.00 | 0.00 | 0.00 | 62 | 1015.5 |
| 20260906050116 | 26 | 124 | 12.9 | 19.3 | 0.00 | 0.00 | 0.00 | 61 | 1015.4 |
| 20260906045548 | 26 | 130 | 12.9 | 19.3 | 0.00 | 0.00 | 0.00 | 61 | 1015.4 |
| 20260906045049 | 26 | 131 | 12.9 | 19.3 | 0.00 | 0.00 | 0.00 | 61 | 1015.3 |
| 20260906044559 | 26 | 111 | 14.5 | 19.3 | 0.00 | 0.00 | 0.00 | 61 | 1015.4 |
| 20260906044047 | 26 | 122 | 14.5 | 17.7 | 0.00 | 0.00 | 0.00 | 61 | 1015.5 |
| 20260906043545 | 25 | 115 | 11.3 | 16.1 | 0.00 | 0.00 | 0.00 | 62 | 1015.6 |
| 20260906043107 | 25 | 121 | 11.3 | 16.1 | 0.00 | 0.00 | 0.00 | 62 | 1015.3 |
| 20260906042546 | 25 | 132 | 11.3 | 16.1 | 0.00 | 0.00 | 0.00 | 63 | 1015.3 |
| 20260906042045 | 25 | 128 | 11.3 | 16.1 | 0.00 | 0.00 | 0.00 | 62 | 1015.3 |
| 20260906041602 | 25 | 110 | 11.3 | 14.5 | 0.00 | 0.00 | 0.00 | 62 | 1015.3 |
| 20260906041046 | 25 | 123 | 11.3 | 14.5 | 0.00 | 0.00 | 0.00 | 62 | 1015.3 |
| 20260906040547 | 25 | 116 | 11.3 | 16.1 | 0.00 | 0.00 | 0.00 | 61 | 1015.4 |
| 20260906040111 | 25 | 127 | 11.3 | 17.7 | 0.00 | 0.00 | 0.00 | 61 | 1015.4 |
| 20260906035547 | 26 | 127 | 12.9 | 17.7 | 0.00 | 0.00 | 0.00 | 61 | 1015.3 |
| 20260906035048 | 25 | 117 | 11.3 | 17.7 | 0.00 | 0.00 | 0.00 | 61 | 1015.3 |
| 20260906034603 | 25 | 120 | 12.9 | 17.7 | 0.00 | 0.00 | 0.00 | 61 | 1015.3 |
| 20260906034046 | 25 | 110 | 11.3 | 16.1 | 0.00 | 0.00 | 0.00 | 62 | 1015.3 |
| 20260906033550 | 25 | 126 | 12.9 | 16.1 | 0.00 | 0.00 | 0.00 | 63 | 1015.3 |
| 20260906033107 | 25 | 132 | 9.7 | 16.1 | 0.00 | 0.00 | 0.00 | 63 | 1015.3 |
| 20260906032546 | 25 | 139 | 11.3 | 16.1 | 0.00 | 0.00 | 0.00 | 63 | 1015.2 |
| 20260906032048 | 25 | 135 | 11.3 | 16.1 | 0.00 | 0.00 | 0.00 | 63 | 1015.2 |
| 20260906031630 | 25 | 127 | 9.7 | 17.7 | 0.00 | 0.00 | 0.00 | 63 | 1015.3 |
| 20260906031048 | 26 | 131 | 11.3 | 17.7 | 0.00 | 0.00 | 0.00 | 62 | 1015.4 |
| 20260906030549 | 26 | 124 | 11.3 | 17.7 | 0.00 | 0.00 | 0.00 | 62 | 1015.4 |
| 20260906030109 | 26 | 125 | 11.3 | 17.7 | 0.00 | 0.00 | 0.00 | 62 | 1015.3 |
| 20260906025548 | 26 | 136 | 11.3 | 17.7 | 0.00 | 0.00 | 0.00 | 61 | 1015.3 |
| 20260906025045 | 26 | 136 | 11.3 | 17.7 | 0.00 | 0.00 | 0.00 | 61 | 1015.1 |
| 20260906024605 | 26 | 139 | 12.9 | 17.7 | 0.00 | 0.00 | 0.00 | 61 | 1014.8 |
| 20260906024047 | 26 | 129 | 14.5 | 19.3 | 0.00 | 0.00 | 0.00 | 61 | 1014.7 |
| 20260906023546 | 26 | 149 | 14.5 | 25.7 | 0.00 | 0.00 | 0.00 | 61 | 1014.7 |
| 20260906023115 | 26 | 130 | 16.1 | 25.7 | 0.00 | 0.00 | 0.00 | 61 | 1014.7 |
| 20260906022550 | 26 | 132 | 17.7 | 25.7 | 0.00 | 0.00 | 0.00 | 61 | 1014.6 |
| 20260906022047 | 26 | 127 | 17.7 | 25.7 | 0.00 | 0.00 | 0.00 | 61 | 1014.5 |
| 20260906021607 | 26 | 120 | 19.3 | 27.4 | 0.00 | 0.00 | 0.00 | 61 | 1014.6 |
| 20260906021047 | 26 | 140 | 17.7 | 27.4 | 0.00 | 0.00 | 0.00 | 61 | 1014.4 |
| 20260906020547 | 26 | 119 | 19.3 | 30.6 | 0.00 | 0.00 | 0.00 | 61 | 1014.4 |
| 20260906015547 | 26 | 84 | 22.5 | 30.6 | 0.00 | 0.00 | 0.00 | 62 | 1014.4 |
| 20260906015049 | 26 | 111 | 22.5 | 30.6 | 0.00 | 0.00 | 0.00 | 62 | 1014.2 |
| 20260906014606 | 26 | 118 | 20.9 | 30.6 | 0.00 | 0.00 | 0.00 | 62 | 1014.1 |
| 20260906014049 | 27 | 106 | 24.1 | 35.4 | 0.00 | 0.00 | 0.00 | 62 | 1014.2 |
| 20260906013546 | 27 | 111 | 24.1 | 35.4 | 0.00 | 0.00 | 0.00 | 60 | 1014.0 |
| 20260906013101 | 27 | 87 | 19.3 | 35.4 | 0.00 | 0.00 | 0.00 | 57 | 1013.9 |
| 20260906012549 | 27 | 116 | 24.1 | 35.4 | 0.00 | 0.00 | 0.00 | 56 | 1013.9 |
| 20260906012048 | 27 | 119 | 24.1 | 35.4 | 0.00 | 0.00 | 0.00 | 56 | 1013.8 |
| 20260906011610 | 27 | 115 | 22.5 | 35.4 | 0.00 | 0.00 | 0.00 | 57 | 1013.9 |
| 20260906011047 | 27 | 120 | 22.5 | 30.6 | 0.00 | 0.00 | 0.00 | 58 | 1014.0 |
| 20260906010548 | 27 | 126 | 22.5 | 30.6 | 0.00 | 0.00 | 0.00 | 58 | 1014.0 |
| 20260906010104 | 27 | 111 | 22.5 | 35.4 | 0.00 | 0.00 | 0.00 | 59 | 1014.0 |
| 20260906005546 | 27 | 135 | 24.1 | 37.0 | 0.00 | 0.00 | 0.00 | 59 | 1014.1 |
| 20260906005045 | 27 | 124 | 25.7 | 37.0 | 0.00 | 0.00 | 0.00 | 59 | 1014.1 |
| 20260906004600 | 27 | 114 | 22.5 | 37.0 | 0.00 | 0.00 | 0.00 | 58 | 1014.2 |
| 20260906004046 | 27 | 126 | 25.7 | 41.8 | 0.00 | 0.00 | 0.00 | 58 | 1014.2 |
| 20260906003546 | 28 | 113 | 27.4 | 41.8 | 0.00 | 0.00 | 0.00 | 58 | 1014.2 |
| 20260906003105 | 28 | 122 | 29.0 | 43.5 | 0.00 | 0.00 | 0.00 | 56 | 1014.2 |
| 20260906002552 | 28 | 124 | 30.6 | 43.5 | 0.00 | 0.00 | 0.00 | 56 | 1014.4 |
| 20260906002047 | 29 | 127 | 30.6 | 40.2 | 0.00 | 0.00 | 0.00 | 55 | 1014.3 |
| 20260906001611 | 29 | 98 | 27.4 | 35.4 | 0.00 | 0.00 | 0.00 | 54 | 1014.3 |
| 20260906001050 | 30 | 127 | 25.7 | 41.8 | 0.00 | 0.00 | 0.00 | 52 | 1014.2 |
| 20260906000547 | 30 | 96 | 27.4 | 45.1 | 0.00 | 0.00 | 0.00 | 51 | 1014.3 |
| 20260906000109 | 30 | 117 | 30.6 | 45.1 | 0.00 | 0.00 | 0.00 | 50 | 1014.3 |
| 20260905235548 | 30 | 116 | 29.0 | 38.6 | 0.00 | 0.00 | 0.00 | 51 | 1014.3 |
| 20260905235047 | 30 | 120 | 25.7 | 38.6 | 0.00 | 0.00 | 0.00 | 52 | 1014.1 |
| 20260905234607 | 30 | 96 | 25.7 | 38.6 | 0.00 | 0.00 | 0.00 | 51 | 1014.1 |
| 20260905234052 | 30 | 105 | 20.9 | 38.6 | 0.00 | 0.00 | 0.00 | 51 | 1014.2 |
| 20260905233547 | 31 | 84 | 19.3 | 38.6 | 0.00 | 0.00 | 0.00 | 51 | 1014.3 |
| 20260905233108 | 31 | 99 | 22.5 | 37.0 | 0.00 | 0.00 | 0.00 | 49 | 1014.2 |
| 20260905232548 | 32 | 113 | 22.5 | 35.4 | 0.00 | 0.00 | 0.00 | 45 | 1013.9 |
| 20260905232049 | 35 | 75 | 25.7 | 32.2 | 0.00 | 0.00 | 0.00 | 40 | 1014.0 |
| 20260905231619 | 35 | 148 | 17.7 | 25.7 | 0.00 | 0.00 | 0.00 | 35 | 1013.7 |
| 20260905231051 | 36 | 125 | 19.3 | 29.0 | 0.00 | 0.00 | 0.00 | 34 | 1013.6 |
| 20260905230549 | 36 | 101 | 19.3 | 29.0 | 0.00 | 0.00 | 0.00 | 34 | 1013.5 |
| 20260905230113 | 36 | 122 | 16.1 | 25.7 | 0.00 | 0.00 | 0.00 | 34 | 1013.4 |
| 20260905225546 | 36 | 115 | 11.3 | 35.4 | 0.00 | 0.00 | 0.00 | 34 | 1013.3 |
| 20260905225047 | 36 | 120 | 19.3 | 35.4 | 0.00 | 0.00 | 0.00 | 33 | 1013.2 |
| 20260905224604 | 36 | 146 | 20.9 | 35.4 | 0.00 | 0.00 | 0.00 | 34 | 1013.2 |
| 20260905224048 | 36 | 120 | 22.5 | 32.2 | 0.00 | 0.00 | 0.00 | 34 | 1013.2 |
| 20260905223546 | 36 | 128 | 19.3 | 29.0 | 0.00 | 0.00 | 0.00 | 34 | 1013.2 |
| 20260905223105 | 36 | 144 | 19.3 | 29.0 | 0.00 | 0.00 | 0.00 | 34 | 1013.2 |
| 20260905222550 | 36 | 129 | 16.1 | 29.0 | 0.00 | 0.00 | 0.00 | 33 | 1013.2 |
| 20260905222046 | 36 | 139 | 20.9 | 29.0 | 0.00 | 0.00 | 0.00 | 33 | 1013.1 |
| 20260905221633 | 36 | 141 | 19.3 | 32.2 | 0.00 | 0.00 | 0.00 | 34 | 1013.1 |
| 20260905221047 | 36 | 146 | 17.7 | 32.2 | 0.00 | 0.00 | 0.00 | 34 | 1013.1 |
| 20260905220549 | 36 | 151 | 19.3 | 29.0 | 0.00 | 0.00 | 0.00 | 33 | 1013.0 |
| 20260905220100 | 36 | 119 | 16.1 | 24.1 | 0.00 | 0.00 | 0.00 | 33 | 1013.2 |
| 20260905215547 | 36 | 143 | 14.5 | 25.7 | 0.00 | 0.00 | 0.00 | 34 | 1013.1 |
| 20260905215053 | 36 | 148 | 16.1 | 29.0 | 0.00 | 0.00 | 0.00 | 34 | 1013.2 |
| 20260905214609 | 36 | 161 | 19.3 | 30.6 | 0.00 | 0.00 | 0.00 | 35 | 1013.4 |
| 20260905214050 | 36 | 197 | 19.3 | 30.6 | 0.00 | 0.00 | 0.00 | 35 | 1013.4 |
| 20260905213549 | 36 | 195 | 22.5 | 30.6 | 0.00 | 0.00 | 0.00 | 35 | 1013.5 |
| 20260905213105 | 36 | 203 | 19.3 | 30.6 | 0.00 | 0.00 | 0.00 | 34 | 1013.6 |
| 20260905212552 | 36 | 152 | 19.3 | 30.6 | 0.00 | 0.00 | 0.00 | 34 | 1013.4 |
| 20260905212047 | 37 | 159 | 17.7 | 35.4 | 0.00 | 0.00 | 0.00 | 33 | 1013.4 |
| 20260905211605 | 37 | 206 | 19.3 | 35.4 | 0.00 | 0.00 | 0.00 | 33 | 1013.4 |
| 20260905211049 | 37 | 163 | 22.5 | 35.4 | 0.00 | 0.00 | 0.00 | 33 | 1013.4 |
| 20260905210548 | 37 | 157 | 20.9 | 35.4 | 0.00 | 0.00 | 0.00 | 32 | 1013.5 |
| 20260905210114 | 37 | 158 | 12.9 | 35.4 | 0.00 | 0.00 | 0.00 | 33 | 1013.5 |
| 20260905205548 | 36 | 200 | 20.9 | 32.2 | 0.00 | 0.00 | 0.00 | 34 | 1013.6 |
| 20260905205049 | 36 | 124 | 19.3 | 32.2 | 0.00 | 0.00 | 0.00 | 34 | 1013.7 |
| 20260905204601 | 36 | 135 | 12.9 | 32.2 | 0.00 | 0.00 | 0.00 | 35 | 1013.8 |
| 20260905204048 | 36 | 163 | 17.7 | 32.2 | 0.00 | 0.00 | 0.00 | 34 | 1014.0 |
| 20260905203548 | 36 | 124 | 11.3 | 27.4 | 0.00 | 0.00 | 0.00 | 34 | 1014.1 |
| 20260905203059 | 36 | 166 | 17.7 | 27.4 | 0.00 | 0.00 | 0.00 | 35 | 1014.3 |
| 20260905202549 | 36 | 176 | 20.9 | 35.4 | 0.00 | 0.00 | 0.00 | 35 | 1014.3 |
| 20260905202047 | 36 | 152 | 24.1 | 35.4 | 0.00 | 0.00 | 0.00 | 35 | 1014.3 |
| 20260905201600 | 36 | 141 | 22.5 | 32.2 | 0.00 | 0.00 | 0.00 | 35 | 1014.4 |